Weather History for Alexandria, Egypt

Change the Weather History Date:

Friday, February 1, 2013

  Actual Average Record
Temperature  
Mean Temperature 58 °F -  
Max Temperature 63 °F 63 °F 75 °F (2003)
Min Temperature 52 °F 48 °F 41 °F (1999)
Degree Days  
Heating Degree Days 8    
Growing Degree Days 8 (Base 50)    
Moisture  
Dew Point 48 °F    
Average Humidity 67    
Maximum Humidity 88    
Minimum Humidity 49    
Precipitation  
Precipitation 0.00 in 0.03 in - ()
Sea Level Pressure  
Sea Level Pressure 29.94 in    
Wind  
Wind Speed 11 mph ()    
Max Wind Speed 22 mph    
Max Gust Speed -    
Visibility 6.2 miles    
Events Rain    
Averages and records for this station are not official NWS values.
T = Trace of Precipitation, MM = Missing Value Source: Averaged Metar Reports

Daily Weather History Graph

Daily Weather History Graph

Search for Another Location

Airport:

Trip Planner

Search our weather history database for the weather conditions in past years. The results will help you decide how hot, cold, wet, or windy it might be!

Date:

Astronomy

Feb. 01, 2013 Rise Set
Actual Time 6:52 AM EET 5:35 PM EET
Civil Twilight 6:27 AM EET 6:00 PM EET
Nautical Twilight 5:58 AM EET 6:29 PM EET
Astronomical Twilight 5:29 AM EET 6:58 PM EET
Moon 10:53 PM EET (2/1) 9:38 AM EET (2/1)
Length of Visible Light 11h 33m
Length of Day
10h 43m
Waning Gibbous, 73% of the Moon is Illuminated
Feb 1
Waning Gibbous
Feb 3
Last Quarter
Feb 10
New
Feb 17
First Quarter
Feb 25
Full

Hourly Weather History & Observations

Time (EET) Temp. Dew Point Humidity Pressure Visibility Wind Dir Wind Speed Gust Speed Precip Events Conditions
12:00 AM 57.2 °F 42.8 °F 59% 29.95 in 6.2 mi West 10.4 mph - N/A   Scattered Clouds
1:00 AM 57.2 °F 42.8 °F 59% 29.92 in 6.2 mi West 9.2 mph - N/A   Scattered Clouds
2:00 AM 57 °F 43 °F 49% 29.92 in 6 mi West 4.6 mph - -   Mostly Cloudy
2:00 AM 57.2 °F 42.8 °F 59% 29.92 in 6.2 mi West 4.6 mph - N/A   Scattered Clouds
3:00 AM 57.2 °F 42.8 °F 59% 29.92 in 6.2 mi West 5.8 mph - N/A   Scattered Clouds
4:00 AM 55.4 °F 42.8 °F 63% 29.92 in 6.2 mi West 4.6 mph - N/A   Scattered Clouds
5:00 AM 55.4 °F 44.6 °F 67% 29.86 in 6.2 mi SW 13.8 mph - N/A   Scattered Clouds
6:00 AM 55.4 °F 44.6 °F 67% 29.83 in 6.2 mi West 11.5 mph - N/A   Scattered Clouds
7:00 AM 53.6 °F 48.2 °F 82% 29.83 in 6.2 mi West 15.0 mph - N/A   Scattered Clouds
8:00 AM 53 °F 49 °F 82% 29.85 in 6 mi WNW 12.7 mph - - Rain Light Rain Showers
8:00 AM 53.6 °F 50.0 °F 88% 29.86 in 6.2 mi WNW 12.7 mph - N/A   Scattered Clouds
9:00 AM 59.0 °F 50.0 °F 72% 29.86 in 6.2 mi NW 16.1 mph - N/A   Scattered Clouds
10:00 AM 60.8 °F 50.0 °F 68% 29.89 in 6.2 mi NW 18.4 mph - N/A   Scattered Clouds
11:00 AM 60.8 °F 48.2 °F 63% 29.92 in 6.2 mi WNW 21.9 mph - N/A   Scattered Clouds
12:00 PM 62.6 °F 51.8 °F 68% 29.92 in 6.2 mi NW 17.3 mph - N/A   Scattered Clouds
1:00 PM 62.6 °F 48.2 °F 59% 29.92 in 6.2 mi NW 16.1 mph - N/A   Scattered Clouds
2:00 PM 63 °F 49 °F 49% 29.94 in 6 mi NW 15.0 mph - -   Mostly Cloudy
2:00 PM 62.6 °F 48.2 °F 59% 29.92 in 6.2 mi NW 15.0 mph - N/A   Scattered Clouds
3:00 PM 60.8 °F 50.0 °F 68% 29.95 in 6.2 mi NW 18.4 mph - N/A   Scattered Clouds
4:00 PM 59.0 °F 50.0 °F 72% 29.98 in 6.2 mi NW 19.6 mph - N/A   Scattered Clouds
5:00 PM 59.0 °F 50.0 °F 72% 29.98 in 6.2 mi NW 17.3 mph - N/A   Scattered Clouds
6:00 PM 59.0 °F 50.0 °F 72% 30.01 in 6.2 mi NW 18.4 mph - N/A   Scattered Clouds
7:00 PM 59.0 °F 50.0 °F 72% 30.04 in 6.2 mi NW 17.3 mph - N/A   Scattered Clouds
8:00 PM 58 °F 50 °F 66% 30.05 in 6 mi NW 17.3 mph - -   Mostly Cloudy
8:00 PM 59.0 °F 50.0 °F 72% 30.04 in 6.2 mi NW 17.3 mph - N/A   Scattered Clouds
9:00 PM 59.0 °F 48.2 °F 67% 30.06 in 6.2 mi NW 13.8 mph - N/A   Scattered Clouds
10:00 PM 57.2 °F 46.4 °F 67% 30.09 in 6.2 mi NW 12.7 mph - N/A   Scattered Clouds
11:00 PM 57.2 °F 50.0 °F 77% 30.09 in 6.2 mi NW 11.5 mph - N/A   Scattered Clouds